Weather History for Kansas City, MO

Change the Weather History Date:

Friday, January 4, 2013

  Actual Average Record
Temperature  
Mean Temperature 32 °F -  
Max Temperature 43 °F 38 °F 66 °F (1997)
Min Temperature 21 °F 21 °F 1 °F (1999)
Degree Days  
Heating Degree Days 33    
Moisture  
Dew Point 22 °F    
Average Humidity 67    
Maximum Humidity 85    
Minimum Humidity 47    
Precipitation  
Precipitation 0.00 in - - ()
Sea Level Pressure  
Sea Level Pressure 30.34 in    
Wind  
Wind Speed 5 mph (SW)    
Max Wind Speed 13 mph    
Max Gust Speed 22 mph    
Visibility 9 miles    
Events      
Averages and records for this station are not official NWS values.
T = Trace of Precipitation, MM = Missing Value Source: NWS Daily Summary

Daily Weather History Graph

Daily Weather History Graph

Search for Another Location

Airport:

Trip Planner

Search our weather history database for the weather conditions in past years. The results will help you decide how hot, cold, wet, or windy it might be!

Date:

Astronomy

Jan. 04, 2013 Rise Set
Actual Time 7:37 AM CST 5:09 PM CST
Civil Twilight 7:08 AM CST 5:39 PM CST
Nautical Twilight 6:34 AM CST 6:12 PM CST
Astronomical Twilight 6:02 AM CST 6:44 PM CST
Moon No Moon Rise 11:24 AM CST (1/4)
Length of Visible Light 10h 31m
Length of Day
9h 31m
Waning Gibbous, 55% of the Moon is Illuminated
Jan 4
Waning Gibbous
Jan 4
Last Quarter
Jan 11
New
Jan 18
First Quarter
Jan 26
Full

Hourly Weather History & Observations

Time (CST) Temp. Windchill Dew Point Humidity Pressure Visibility Wind Dir Wind Speed Gust Speed Precip Events Conditions
12:54 AM 24.1 °F - 19.0 °F 81% 30.42 in 10.0 mi Calm Calm - N/A   Clear
1:54 AM 21.9 °F - 16.0 °F 78% 30.43 in 9.0 mi Calm Calm - N/A   Clear
2:54 AM 21.0 °F 14.6 °F 17.1 °F 85% 30.43 in 7.0 mi SSW 4.6 mph - N/A   Clear
3:54 AM 21.9 °F 15.7 °F 18.0 °F 85% 30.41 in 7.0 mi SSW 4.6 mph - N/A   Clear
4:54 AM 21.9 °F 15.7 °F 18.0 °F 85% 30.40 in 7.0 mi SSW 4.6 mph - N/A   Clear
5:54 AM 23.0 °F 17.0 °F 18.0 °F 81% 30.40 in 6.0 mi SW 4.6 mph - N/A   Haze
6:54 AM 21.9 °F 17.2 °F 18.0 °F 85% 30.40 in 6.0 mi SSW 3.5 mph - N/A   Clear
7:54 AM 21.9 °F 14.5 °F 18.0 °F 85% 30.39 in 5.0 mi SSW 5.8 mph - N/A   Clear
8:54 AM 27.0 °F 19.5 °F 21.0 °F 78% 30.39 in 7.0 mi SSW 6.9 mph - N/A   Clear
9:54 AM 32.0 °F 22.5 °F 21.9 °F 66% 30.40 in 10.0 mi SW 12.7 mph 21.9 mph N/A   Clear
10:54 AM 36.0 °F 27.5 °F 21.9 °F 57% 30.39 in 10.0 mi SW 12.7 mph - N/A   Clear
11:54 AM 39.0 °F 31.4 °F 21.9 °F 50% 30.36 in 10.0 mi SW 12.7 mph 19.6 mph N/A   Clear
12:54 PM 39.9 °F 32.5 °F 23.0 °F 51% 30.32 in 10.0 mi WSW 12.7 mph 19.6 mph N/A   Clear
1:54 PM 42.1 °F 37.7 °F 24.1 °F 49% 30.31 in 10.0 mi SW 6.9 mph 17.3 mph N/A   Clear
2:54 PM 43.0 °F 37.7 °F 24.1 °F 47% 30.30 in 10.0 mi SW 9.2 mph - N/A   Clear
3:54 PM 42.1 °F 37.7 °F 25.0 °F 51% 30.30 in 10.0 mi SW 6.9 mph - N/A   Clear
4:54 PM 39.0 °F 33.4 °F 25.0 °F 57% 30.29 in 10.0 mi SSW 8.1 mph - N/A   Clear
5:54 PM 37.9 °F 34.4 °F 25.0 °F 60% 30.29 in 10.0 mi SSW 4.6 mph - N/A   Clear
6:54 PM 36.0 °F 32.1 °F 25.0 °F 64% 30.29 in 10.0 mi SSW 4.6 mph - N/A   Clear
7:54 PM 34.0 °F 28.8 °F 25.0 °F 70% 30.28 in 10.0 mi SSW 5.8 mph - N/A   Clear
8:54 PM 36.0 °F 32.1 °F 25.0 °F 64% 30.27 in 10.0 mi SSW 4.6 mph - N/A   Clear
9:54 PM 36.0 °F - 24.1 °F 62% 30.26 in 10.0 mi Calm Calm - N/A   Clear
10:54 PM 33.1 °F 26.1 °F 23.0 °F 66% 30.26 in 10.0 mi SSW 8.1 mph - N/A   Clear
11:54 PM 37.9 °F 30.5 °F 23.0 °F 55% 30.25 in 10.0 mi SW 11.5 mph - N/A   Clear